Location: Sternwarte Stuttgart
(48.7670°N, 9.1830°E)
Time: 14:07:59
(UTC+02:00)

Okean O Rocket - Pass Details

Date: 24 January 2019
Orbit: 623 x 644 km, 98.2° (Epoch: 17 October)

Event Time Altitude Azimuth Distance (km) Brightness Sun altitude
Rises 05:59:40 0° 9° (N) 2,954 5.1 -20.1°
Reaches altitude 10° 06:01:56 10° 3° (N) 2,043 4.2 -19.8°
Maximum altitude 06:06:11 46° 291° (WNW) 865 1.8 -19.1°
Enters shadow 06:07:27 36° 247° (WSW) 1,025 2.2 -18.9°
